Simultaneous Nadir Overpasses (SNOs) Predictions

Prediction of SNOs near equator between AQUA and NPP Satellite Orbit:

Table of predicted SNOs near equator for the next 14.0 days since TLE Epoch: 11/24/2018
Index Date (AQUA) Time (AQUA) AQUA Lat,Lon Date (NPP) Time (NPP) NPP Lat,Lon Distance(km) Time Diff (sec)
1 11/24/2018 15:40:46 -22.30, 145.31 11/24/2018 15:30:46 -22.33, 145.01 31.28 600
2 11/24/2018 16:24:42 2.13, -42.60 11/24/2018 16:15:50 2.05, -42.98 42.60 532
3 11/24/2018 17:12:50 2.38, 126.01 11/24/2018 17:05:13 2.50, 125.37 72.47 457
4 11/27/2018 07:52:31 -5.22, -95.00 11/27/2018 07:42:48 -5.19, -95.21 22.70 583
5 11/27/2018 08:40:45 0.60, 73.60 11/27/2018 08:32:18 0.51, 73.13 53.11 507
6 11/27/2018 09:28:53 3.91,-117.78 11/27/2018 09:21:41 4.04,-118.52 82.80 432
7 11/30/2018 00:08:35 -3.70, 21.20 11/29/2018 23:59:17 -3.65, 20.90 33.20 558
8 11/30/2018 00:56:49 -0.91,-170.20 11/30/2018 00:48:47 -1.02,-170.76 63.61 482
9 11/30/2018 01:44:57 5.43, -1.58 11/30/2018 01:38:10 5.57, -2.41 93.04 407
10 12/02/2018 15:40:28 21.02, -34.40 12/02/2018 15:30:28 21.06, -34.70 31.67 600
11 12/02/2018 16:24:39 -2.19, 137.40 12/02/2018 16:15:46 -2.11, 137.01 43.75 533
12 12/02/2018 17:12:53 -2.42, -54.00 12/02/2018 17:05:16 -2.56, -54.65 74.10 457
13 12/05/2018 07:52:35 5.21, 84.98 12/05/2018 07:42:52 5.14, 84.77 24.72 583
14 12/05/2018 08:40:43 -0.68,-106.40 12/05/2018 08:32:15 -0.58,-106.88 54.34 508
15 12/05/2018 09:28:57 -3.92, 62.20 12/05/2018 09:21:45 -4.09, 61.46 84.56 432
16 12/08/2018 00:08:36 3.60,-158.79 12/07/2018 23:59:19 3.55,-159.10 35.11 557
17 12/08/2018 00:56:46 0.81, 9.80 12/08/2018 00:48:43 0.95, 9.23 64.99 483
18 12/08/2018 01:44:59 -5.47, 178.42 12/08/2018 01:38:12 -5.68, 177.59 94.89 407




NCC Satellite Simultaneous Nadir Overpasses (SNOs) Prediction Service
